{"data":{"norad_id":58693,"intl_designator":"2023-212C","name":"HULIANWANG JISHU SHIYAN*","alt_names":[],"object_type":"PAYLOAD","status":"ACTIVE","operator":null,"country":"PRC","launch_date":"2023-12-30","launch_site_code":"JSC","launch_vehicle":null,"mission":null,"orbit_class":"UNKNOWN","rcs_meters":null,"size_class":null,"mass_kg":null,"dimensions":null,"purposes":[],"wikipedia_slug":null,"has_3d_model":false,"image_url":null,"decayed_at":null,"tle_current":{"epoch":"2026-05-25T04:52:40.355040Z","epoch_age_seconds":53927,"freshness":"FRESH","line1":"1 58693U 23212C   26145.20324485 -.00000086  00000+0  75859-4 0  9999","line2":"2 58693  49.9992  68.4334 0001302  15.3481 344.7435 13.41458845118172","mean_motion":13.41458845,"eccentricity":0.0001302,"inclination_deg":49.9992,"raan_deg":68.4334,"arg_perigee_deg":15.3481,"mean_anomaly_deg":344.7435,"bstar":7.5859e-5,"rev_number":11817,"period_min":107.34582021411,"perigee_km":1102.8756696676,"apogee_km":1104.8239790367,"semimajor_km":7481.9868243521,"source":"CELESTRAK","updated_at":"2026-05-25T13:38:00.912641Z"}}}